Regional Weather Roundup
Issued by NWS

Home | Current Version | Previous Version | Text Only | Print | Product List | Glossary Off
Versions: 1 2 3 4 5 6 7 8 9 10 11 12 13 14 15 16 17 18 19 20 21 22 23 24 25 26 27

000
ASUS45 KBOI 231210
RWRID

IDAHO REGIONAL WEATHER ROUNDUP
NATIONAL WEATHER SERVICE BOISE ID
600 AM MDT TUE AUG 23 2016

NOTE: "FAIR" INDICATES FEW OR NO CLOUDS BELOW 12000 FEET
WITH NO SIGNIFICANT WEATHER AND/OR OBSTRUCTIONS TO VISIBILITY

IDZ012-014-231300-
SOUTHWEST IDAHO


CITY           SKY/WX    TMP DP  RH WIND       PRES   REMARKS
BOISE          CLEAR     54  32  43 W3        30.05R
CALDWELL       CLEAR     55  33  43 W7        30.05R
MOUNTAIN HOME  CLEAR     54  28  36 NW9       30.04R
$$

IDZ016-017-231300-
SOUTHCENTRAL IDAHO


CITY           SKY/WX    TMP DP  RH WIND       PRES   REMARKS
BURLEY         PTCLDY    50  33  52 S8        30.05R
JEROME         CLEAR     52  34  50 S7        30.07R
TWIN FALLS     CLEAR     56  24  29 S14       30.07R
$$

IDZ019>023-231300-
SOUTHEAST IDAHO


CITY           SKY/WX    TMP DP  RH WIND       PRES   REMARKS
IDAHO FALLS    CLOUDY    48  29  47 W6        30.07R
POCATELLO      CLEAR     56  20  24 SW9       30.06R
REXBURG        CLOUDY    44  29  55 NE3       30.07R
$$

IDZ006-010-011-018-031-032-231300-
CENTRAL IDAHO MOUNTAINS


CITY           SKY/WX    TMP DP  RH WIND       PRES   REMARKS
MCCALL         CLEAR     41  30  65 CALM      30.12R
HAILEY         CLEAR     43  23  45 NW8       30.12R
STANLEY          N/A     27  15  61 CALM      30.19R
SALMON         CLEAR    N/A N/A N/A MISG        N/A
CHALLIS        CLEAR     40  14  34 W3        30.11R
$$

IDZ002-004-006-007-026-231300-
NORTHERN IDAHO


CITY           SKY/WX    TMP DP  RH WIND       PRES   REMARKS
LEWISTON       CLEAR     52  36  54 CALM      30.08R
LOWELL           N/A     47  41  80 NW3       30.15R
COEUR D`ALENE  MOCLDY    50  -2  11 S3        30.05R
MULLAN PASS    PTCLDY    44  30  57 W6        30.12R
$$




USA.gov is the U.S. government's official web portal to all federal, state and local government web resources and services.